Regional Weather Roundup
Issued by NWS

Home | Current Version | Previous Version | Graphics & Text | Print | Product List | Glossary On
Versions: 1 2 3 4 5 6 7 8 9 10 11 12 13 14 15 16 17 18 19 20 21 22 23 24 25 26 27 28 29 30 31 32 33 34 35 36 37 38 39 40 41 42 43 44 45 46 47 48 49 50
000
ASUS43 KLMK 252002
RWRKY
KENTUCKY REGIONAL WEATHER ROUNDUP
NATIONAL WEATHER SERVICE LOUISVILLE KY
400 PM EDT WED APR 25 2018

NOTE "FAIR" INDICATES FEW OR NO CLOUDS BELOW 12,000 FEET
WITH NO SIGNIFICANT WEATHER AND/OR OBSTRUCTIONS TO VISIBILITY.

KYZ001>023-026-027-061>063-070>075-252100-
WESTERN AND SOUTH CENTRAL KENTUCKY

CITY           SKY/WX    TMP DP  RH WIND       PRES   REMARKS
PADUCAH        FAIR      72  52  49 CALM      29.97S
HENDERSON      FAIR      68  52  56 NW7       29.97F
OWENSBORO      PTSUNNY   69  52  54 NW9       29.97F
HOPKINSVILLE   FAIR      69  51  54 W5        29.97F
BOWLING GREEN  PTSUNNY   69  51  52 VRB3      29.96F
GLASGOW        NOT AVBL
$$

KYZ024-025-028>034-038-045-046-053-252100-
NORTH CENTRAL KENTUCKY

CITY           SKY/WX    TMP DP  RH WIND       PRES   REMARKS
LOUISVILLE/SDF PTSUNNY   69  48  47 N12       29.95F
LOUISVILLE/LOU FAIR      67  49  52 N9G17     29.96S
FORT KNOX      PTSUNNY   66  48  51 N13       29.96F
$$

KYZ035>037-039>044-047>052-055>060-089>105-252100-
NORTHEAST KENTUCKY

CITY           SKY/WX    TMP DP  RH WIND       PRES   REMARKS
LEXINGTON      CLOUDY    62  51  67 N10       29.95S
COVINGTON      PTSUNNY   64  49  57 NW15      29.93F
FRANKFORT      CLOUDY    65  47  52 VRB6      29.93F
$$

KYZ054-064>069-076>088-106>120-252100-
SOUTHEAST KENTUCKY

CITY           SKY/WX    TMP DP  RH WIND       PRES   REMARKS
JACKSON        CLOUDY    55  50  83 NW9G16    29.92S
LONDON         CLOUDY    59  51  75 VRB7      29.93F
SOMERSET       NOT AVBL
MIDDLESBORO    CLOUDY    59  53  78 CALM      29.93F
MONTICELLO     NOT AVBL
$$





USA.gov is the U.S. government's official web portal to all federal, state and local government web resources and services.